Address 0x9e0bce7ec474b481492610eb9dd5d69eb03718d5 3

 
 
Txn Hash Method
Block
From
To
Value [Txn Fee]
0xf975c641174e2390bbb35b1b54a347c8c14ebdd6bd3cde719437c10cfdc25d0dUpdate User Vote...296063652022-06-15 17:38:2316 days 21 hrs ago0x9e0bce7ec474b481492610eb9dd5d69eb03718d5OUT 0x7a9a3395afb32f923a142dbc56467ae5675ce5ec0 MATIC0.1906815 100
0xb7e57ada58b7b6c7a346796f94fe175a2db3ed90df9216ba9c002d8753344283Update User Vote...296063592022-06-15 17:38:1116 days 21 hrs ago0x9e0bce7ec474b481492610eb9dd5d69eb03718d5OUT 0x7a9a3395afb32f923a142dbc56467ae5675ce5ec0 MATIC0.2503349 100
0x758a600f6b5dcc8ff04fa5f08f24252dc956ed367e8bf316b6f9f0e42541ff08Update User Vote...296063562022-06-15 17:38:0516 days 21 hrs ago0x9e0bce7ec474b481492610eb9dd5d69eb03718d5OUT 0x7a9a3395afb32f923a142dbc56467ae5675ce5ec0 MATIC0.2605635 100
0xd3e2bb8d86eb7d5216d0bab5bef7de98d4a0d2bd1267c71e22aec54679d30717Update User Vote...296063522022-06-15 17:37:5716 days 21 hrs ago0x9e0bce7ec474b481492610eb9dd5d69eb03718d5OUT 0x7a9a3395afb32f923a142dbc56467ae5675ce5ec0 MATIC0.2699578 100
0x4ae263a02278cb4da9dab300f2bee68e091ce3b5ed869dea0046a66a491ecc700xfabc62ac296061742022-06-15 17:31:4916 days 21 hrs ago0x9e0bce7ec474b481492610eb9dd5d69eb03718d5OUT 0x7a9a3395afb32f923a142dbc56467ae5675ce5ec0 MATIC0.0053923100
0x96850e90482f5d05fd30e696c5a9922eda667732e9b735998b024e7da6b6227eTransfer283910292022-05-16 13:44:3147 days 1 hr ago0x9e0bce7ec474b481492610eb9dd5d69eb03718d5OUT0xa3a9e9649719f7062065fd5f0da3c13c9453a12c75 MATIC0.005026473664 239.355888771
0xc09cd4b0569e37526a82e9711c15a3fa7af9881babb8e0c54db220e4338942a7Transfer282727412022-05-13 15:38:5749 days 23 hrs ago0x9e0bce7ec474b481492610eb9dd5d69eb03718d5OUT0x4c630c7b0dda86a34388a8f2b66c3029e761996f75 MATIC0.003371081202 160.527676297
0x815186dee2a3966da85d5f5aca4fe9b2b9029897b6c74b087892e98aee0045bbTransfer282727202022-05-13 15:38:1549 days 23 hrs ago0x9e0bce7ec474b481492610eb9dd5d69eb03718d5OUT0x8868e9c4eeeb144fab404a73c40ee680f3db849275 MATIC0.004298663889 204.698280431
0x7e6a192f4a748debc9aef466ef5522aca6fd81f69a70af434da8157eea6319dfTransfer282727162022-05-13 15:38:0749 days 23 hrs ago0x9e0bce7ec474b481492610eb9dd5d69eb03718d5OUT0x7ec994409c47f3d50d3ca1e13973bb04cc51784975 MATIC0.00568194499 270.568809079
0x24f81f0ea1c499110bd4d8112155c515677d64ce54ec32ee1c1795b8004d0c76Transfer282727112022-05-13 15:37:5749 days 23 hrs ago0x9e0bce7ec474b481492610eb9dd5d69eb03718d5OUT0x8501750a3857592c27849b8a3c659a466ff10a4575 MATIC0.003513934867 167.330231797
0xcf94124c0ce7561e4376813c7b6267a864a8dd592e852322293284ff111583dfTransfer282727112022-05-13 15:37:5749 days 23 hrs ago0x9e0bce7ec474b481492610eb9dd5d69eb03718d5OUT0xd1011b0de4c38acba38a15660e1842e12bec6d0775 MATIC0.003513934867 167.330231797
0x54f703d1ec42337942394389b7350c9437b683a15be708335880a2a635baf676Transfer282727012022-05-13 15:37:3349 days 23 hrs ago0x9e0bce7ec474b481492610eb9dd5d69eb03718d5OUT0x8f84b7cfd9caed66d25afe57abc4027906fe8e9975 MATIC0.002162383476 102.970641753
0x62530fcd07df63b13f321f26a43912c16976a103e8ed989bcf7c60a401e11941Pause281224252022-05-09 19:01:0453 days 20 hrs ago0x9e0bce7ec474b481492610eb9dd5d69eb03718d5OUT 0xe06229f72124c7936e42c6fbd645ee688419d5e50 MATIC0.043796019934 810.24216851
0x8f03a7ae6e8dbb2a039c0a38dbf3e30cab098b8b3739290830cd6e1ee81717360xbaeaa941278478922022-05-02 20:30:4360 days 18 hrs ago0x9e0bce7ec474b481492610eb9dd5d69eb03718d5OUT 0xe06229f72124c7936e42c6fbd645ee688419d5e50 MATIC0.0195426100
0xf25818cbb81c13e06e561cd1c9a89f185f20b3157075fa89806f0f74d1175098Update User Vote...278033262022-05-01 17:21:5861 days 21 hrs ago0x9e0bce7ec474b481492610eb9dd5d69eb03718d5OUT 0xe06229f72124c7936e42c6fbd645ee688419d5e50 MATIC0.0712953 100
0x889400cf6287117680bd71500df8baf021fc35a57aa357e0189bbb85f7ee2076Update User Vote...278033242022-05-01 17:21:5061 days 21 hrs ago0x9e0bce7ec474b481492610eb9dd5d69eb03718d5OUT 0xe06229f72124c7936e42c6fbd645ee688419d5e50 MATIC0.5128987 100
0xdbef462e9dd551d719e00cdab304ba02e53996813d018212d6d6b4aee81178f6Update User Vote...278033222022-05-01 17:21:4261 days 21 hrs ago0x9e0bce7ec474b481492610eb9dd5d69eb03718d5OUT 0xe06229f72124c7936e42c6fbd645ee688419d5e50 MATIC0.4034247 100
0x72d94fb5946e03c704f9954ac2b4cd27fd718c6df94aedf6ca3c96ac0f2bd85fUpdate User Vote...278033212022-05-01 17:21:3861 days 21 hrs ago0x9e0bce7ec474b481492610eb9dd5d69eb03718d5OUT 0xe06229f72124c7936e42c6fbd645ee688419d5e50 MATIC0.4073887 100
0xf3eb60f9ada6d8345ee23eab13bf48a081e948e3d96f1e3e994b54f65df214e9Update User Vote...278033192022-05-01 17:21:3061 days 21 hrs ago0x9e0bce7ec474b481492610eb9dd5d69eb03718d5OUT 0xe06229f72124c7936e42c6fbd645ee688419d5e50 MATIC0.4032535 100
0x2ae0b2524c55c3fabcdf3db750ead334ac69de1f96fe18401c2ae59dec69d081Update User Vote...278033172022-05-01 17:21:2261 days 21 hrs ago0x9e0bce7ec474b481492610eb9dd5d69eb03718d5OUT 0xe06229f72124c7936e42c6fbd645ee688419d5e50 MATIC0.4028454 100
0xb744e40f8dbdfd527df29888d418ea41972fe7dafcdf2a2d3048ae2266b0b08cUpdate User Vote...278033152022-05-01 17:21:1461 days 21 hrs ago0x9e0bce7ec474b481492610eb9dd5d69eb03718d5OUT 0xe06229f72124c7936e42c6fbd645ee688419d5e50 MATIC0.4032343 100
0xebd90a322ef79402c149e19f5820516819c1d2b9c8bf1fb47a27685a9ac43554Update User Vote...278033132022-05-01 17:21:0661 days 21 hrs ago0x9e0bce7ec474b481492610eb9dd5d69eb03718d5OUT 0xe06229f72124c7936e42c6fbd645ee688419d5e50 MATIC0.4032499 100
0x66c215846e3d81c40509e24126e57c685295fe03be025319159d177426eb6168Update User Vote...278033122022-05-01 17:21:0261 days 21 hrs ago0x9e0bce7ec474b481492610eb9dd5d69eb03718d5OUT 0xe06229f72124c7936e42c6fbd645ee688419d5e50 MATIC0.4032385 100
0x7003b46667d682ae061e08c662f12e4f9198b410e559e1df1c74348cc67aaae7Update User Vote...278033102022-05-01 17:20:5461 days 21 hrs ago0x9e0bce7ec474b481492610eb9dd5d69eb03718d5OUT 0xe06229f72124c7936e42c6fbd645ee688419d5e50 MATIC0.4034502 100
0x3ec3bd10fd600e28ce2fa077e78f4cb0f33c520d3792fb4e7e5b188165efaf79Update User Vote...278033092022-05-01 17:20:5061 days 21 hrs ago0x9e0bce7ec474b481492610eb9dd5d69eb03718d5OUT 0xe06229f72124c7936e42c6fbd645ee688419d5e50 MATIC0.4030262 100
[ Download CSV Export 
Parent Txn Hash Block From To Value
Loading

Contract Name:
0 MATIC

Compiler Version
0

Optimization Enabled:
0 MATIC

Other Settings:
-NA-
Block Transaction Gas Used Reward
Age Block Fee Address BC Fee Address Voting Power Jailed Incoming
Block Uncle Number Difficulty Gas Used Reward
Loading
Loading
Make sure to use the "Vote Down" button for any spammy posts, and the "Vote Up" for interesting conversations.